KUIPER-00062

Last updated on Thu Jul 03 2025 00:02:08 GMT+0000 (Coordinated Universal Time)

1 64522U 25134Y 25183.58335648 .00003675 00000+0 11574-3 0 9996 2 64522 51.8755 286.9350 0005082 132.2228 338.9724 15.35517426 1949
UTC large
Height (km)
Speed (km/s)
/
Latitude / Longitude
Inclination (degrees)
Orbital Period (minutes)
Azimuth
Elevation
Range (km)
Doppler Factor

Next 0 passes for location: London (51.5072 / 0.1276)

Sorry there are no passes over London.